Time,TemperatureF,DewpointF,PressureIn,WindDirection,WindDirectionDegrees,WindSpeedMPH,WindSpeedGustMPH,Humidity,HourlyPrecipIn,Conditions,Clouds,dailyrainin,SoftwareType,DateUTC
2013-03-19 00:00:00,34.6,31.9,30.20,East,79,0.0,2.0,90,0.00,,,0.01,WUHU216DAVISVP2,2013-03-19 07:00:00,
2013-03-19 00:05:00,34.6,32.0,30.20,NNE,24,0.0,3.0,90,0.00,,,0.00,WUHU216DAVISVP2,2013-03-19 07:05:00,
2013-03-19 00:10:00,34.6,31.9,30.19,NNE,24,1.0,3.0,90,0.00,,,0.00,WUHU216DAVISVP2,2013-03-19 07:10:00,
2013-03-19 00:15:00,34.6,31.9,30.19,NNE,24,0.0,1.0,90,0.00,,,0.00,WUHU216DAVISVP2,2013-03-19 07:15:00,
2013-03-19 00:20:00,34.5,31.8,30.19,NNE,33,0.0,1.0,90,0.00,,,0.00,WUHU216DAVISVP2,2013-03-19 07:20:00,
2013-03-19 00:25:00,34.4,31.7,30.19,NNE,33,0.0,1.0,90,0.00,,,0.00,WUHU216DAVISVP2,2013-03-19 07:25:00,
2013-03-19 00:30:00,34.3,31.6,30.19,NE,34,0.0,0.0,90,0.00,,,0.00,WUHU216DAVISVP2,2013-03-19 07:30:00,
2013-03-19 00:35:00,34.1,31.4,30.19,NE,34,0.0,0.0,90,0.00,,,0.00,WUHU216DAVISVP2,2013-03-19 07:35:00,
2013-03-19 00:40:00,34.0,31.4,30.19,NE,34,1.0,1.0,90,0.00,,,0.00,WUHU216DAVISVP2,2013-03-19 07:40:00,
2013-03-19 00:45:00,33.9,31.2,30.18,ENE,67,0.0,2.0,90,0.00,,,0.00,WUHU216DAVISVP2,2013-03-19 07:45:00,
2013-03-19 00:50:00,33.9,31.2,30.18,ENE,67,0.0,2.0,90,0.00,,,0.00,WUHU216DAVISVP2,2013-03-19 07:50:00,
2013-03-19 00:55:00,34.0,31.3,30.18,ENE,67,0.0,2.0,90,0.00,,,0.00,WUHU216DAVISVP2,2013-03-19 07:55:00,
2013-03-19 01:00:00,34.1,31.4,30.18,ENE,75,0.0,2.0,90,0.00,,,0.00,WUHU216DAVISVP2,2013-03-19 08:00:00,
2013-03-19 01:05:00,34.0,31.3,30.18,ENE,75,2.0,2.0,90,0.00,,,0.00,WUHU216DAVISVP2,2013-03-19 08:05:00,
2013-03-19 01:10:00,34.1,31.7,30.17,NE,55,4.0,5.0,91,0.00,,,0.00,WUHU216DAVISVP2,2013-03-19 08:10:00,
2013-03-19 01:15:00,34.2,31.8,30.17,NE,38,1.0,5.0,91,0.00,,,0.00,WUHU216DAVISVP2,2013-03-19 08:15:00,
2013-03-19 01:20:00,34.3,31.9,30.17,ENE,64,2.0,4.0,91,0.00,,,0.00,WUHU216DAVISVP2,2013-03-19 08:20:00,
2013-03-19 01:25:00,34.3,31.7,30.17,ENE,76,4.0,4.0,90,0.00,,,0.00,WUHU216DAVISVP2,2013-03-19 08:25:00,
2013-03-19 01:30:00,34.4,31.7,30.17,East,82,1.0,4.0,90,0.00,,,0.00,WUHU216DAVISVP2,2013-03-19 08:30:00,
2013-03-19 01:35:00,34.3,31.6,30.17,ENE,76,0.0,3.0,90,0.00,,,0.00,WUHU216DAVISVP2,2013-03-19 08:35:00,
2013-03-19 01:40:00,34.2,31.5,30.17,ENE,77,0.0,2.0,90,0.00,,,0.00,WUHU216DAVISVP2,2013-03-19 08:40:00,
2013-03-19 01:45:00,34.1,31.5,30.17,ENE,77,0.0,2.0,90,0.00,,,0.00,WUHU216DAVISVP2,2013-03-19 08:45:00,
2013-03-19 01:50:00,33.9,31.3,30.16,ENE,77,0.0,0.0,90,0.00,,,0.00,WUHU216DAVISVP2,2013-03-19 08:50:00,
2013-03-19 01:55:00,33.8,31.1,30.17,ENE,77,0.0,0.0,90,0.00,,,0.00,WUHU216DAVISVP2,2013-03-19 08:55:00,
2013-03-19 02:00:00,33.7,31.0,30.17,ENE,77,0.0,0.0,90,0.00,,,0.00,WUHU216DAVISVP2,2013-03-19 09:00:00,
2013-03-19 02:05:00,33.6,31.2,30.17,East,96,0.0,2.0,91,0.00,,,0.00,WUHU216DAVISVP2,2013-03-19 09:05:00,
2013-03-19 02:10:00,33.6,31.2,30.17,East,96,0.0,2.0,91,0.00,,,0.00,WUHU216DAVISVP2,2013-03-19 09:10:00,
2013-03-19 02:15:00,33.6,31.2,30.17,ENE,76,0.0,2.0,91,0.00,,,0.00,WUHU216DAVISVP2,2013-03-19 09:15:00,
2013-03-19 02:20:00,33.7,31.3,30.16,East,82,1.0,3.0,91,0.00,,,0.00,WUHU216DAVISVP2,2013-03-19 09:20:00,
2013-03-19 02:25:00,33.9,31.2,30.16,East,79,2.0,3.0,90,0.00,,,0.00,WUHU216DAVISVP2,2013-03-19 09:25:00,
2013-03-19 02:30:00,34.1,31.4,30.16,East,82,1.0,3.0,90,0.00,,,0.00,WUHU216DAVISVP2,2013-03-19 09:30:00,
2013-03-19 02:35:00,34.2,31.5,30.15,East,80,1.0,2.0,90,0.00,,,0.00,WUHU216DAVISVP2,2013-03-19 09:35:00,
2013-03-19 02:40:00,34.4,31.5,30.15,East,80,1.0,2.0,89,0.00,,,0.00,WUHU216DAVISVP2,2013-03-19 09:40:00,
2013-03-19 02:45:00,34.5,31.5,30.15,East,80,0.0,2.0,89,0.00,,,0.00,WUHU216DAVISVP2,2013-03-19 09:45:00,
2013-03-19 02:50:00,34.4,31.5,30.15,East,80,0.0,1.0,89,0.00,,,0.00,WUHU216DAVISVP2,2013-03-19 09:50:00,
2013-03-19 02:55:00,34.3,31.4,30.15,East,80,1.0,1.0,89,0.00,,,0.00,WUHU216DAVISVP2,2013-03-19 09:55:00,
2013-03-19 03:00:00,34.3,31.1,30.15,East,82,0.0,2.0,88,0.00,,,0.00,WUHU216DAVISVP2,2013-03-19 10:00:00,
2013-03-19 03:05:00,34.3,31.1,30.14,East,82,0.0,2.0,88,0.00,,,0.00,WUHU216DAVISVP2,2013-03-19 10:05:00,
2013-03-19 03:10:00,34.4,31.2,30.14,ENE,74,2.0,2.0,88,0.00,,,0.00,WUHU216DAVISVP2,2013-03-19 10:10:00,
2013-03-19 03:15:00,34.5,31.3,30.14,ENE,76,1.0,4.0,88,0.00,,,0.00,WUHU216DAVISVP2,2013-03-19 10:15:00,
2013-03-19 03:20:00,34.6,31.4,30.14,ENE,75,1.0,4.0,88,0.00,,,0.00,WUHU216DAVISVP2,2013-03-19 10:20:00,
2013-03-19 03:25:00,34.7,31.5,30.13,ENE,59,0.0,3.0,88,0.00,,,0.00,WUHU216DAVISVP2,2013-03-19 10:25:00,
2013-03-19 03:30:00,34.9,31.7,30.13,ENE,59,1.0,3.0,88,0.00,,,0.00,WUHU216DAVISVP2,2013-03-19 10:30:00,
2013-03-19 03:35:00,34.6,31.4,30.13,ENE,59,0.0,2.0,88,0.00,,,0.00,WUHU216DAVISVP2,2013-03-19 10:35:00,
2013-03-19 03:40:00,34.6,31.4,30.13,East,84,0.0,5.0,88,0.00,,,0.00,WUHU216DAVISVP2,2013-03-19 10:40:00,
2013-03-19 03:45:00,34.7,31.2,30.12,ENE,58,1.0,5.0,87,0.00,,,0.00,WUHU216DAVISVP2,2013-03-19 10:45:00,
2013-03-19 03:50:00,34.8,31.3,30.12,ENE,66,2.0,4.0,87,0.00,,,0.00,WUHU216DAVISVP2,2013-03-19 10:50:00,
2013-03-19 03:55:00,35.0,31.2,30.11,East,81,2.0,6.0,86,0.00,,,0.00,WUHU216DAVISVP2,2013-03-19 10:55:00,
2013-03-19 04:00:00,35.1,31.3,30.11,ENE,78,2.0,6.0,86,0.00,,,0.00,WUHU216DAVISVP2,2013-03-19 11:00:00,
2013-03-19 04:05:00,35.0,31.2,30.11,East,92,2.0,5.0,86,0.00,,,0.00,WUHU216DAVISVP2,2013-03-19 11:05:00,
2013-03-19 04:10:00,35.0,31.2,30.10,ENE,68,2.0,4.0,86,0.00,,,0.00,WUHU216DAVISVP2,2013-03-19 11:10:00,
2013-03-19 04:15:00,35.1,31.3,30.10,ENE,78,3.0,4.0,86,0.00,,,0.00,WUHU216DAVISVP2,2013-03-19 11:15:00,
2013-03-19 04:20:00,35.2,31.4,30.10,East,81,2.0,4.0,86,0.00,,,0.00,WUHU216DAVISVP2,2013-03-19 11:20:00,
2013-03-19 04:25:00,35.2,31.4,30.09,ENE,70,0.0,4.0,86,0.00,,,0.00,WUHU216DAVISVP2,2013-03-19 11:25:00,
2013-03-19 04:30:00,35.2,31.1,30.09,ENE,75,2.0,4.0,85,0.00,,,0.00,WUHU216DAVISVP2,2013-03-19 11:30:00,
2013-03-19 04:35:00,35.2,31.4,30.09,East,83,2.0,4.0,86,0.00,,,0.00,WUHU216DAVISVP2,2013-03-19 11:35:00,
2013-03-19 04:40:00,35.2,31.4,30.09,ENE,73,0.0,4.0,86,0.00,,,0.00,WUHU216DAVISVP2,2013-03-19 11:40:00,
2013-03-19 04:45:00,35.1,31.3,30.08,ENE,73,1.0,3.0,86,0.00,,,0.00,WUHU216DAVISVP2,2013-03-19 11:45:00,
2013-03-19 04:50:00,35.0,31.2,30.09,ENE,73,0.0,1.0,86,0.00,,,0.00,WUHU216DAVISVP2,2013-03-19 11:50:00,
2013-03-19 04:55:00,34.9,30.8,30.08,ENE,73,0.0,1.0,85,0.00,,,0.00,WUHU216DAVISVP2,2013-03-19 11:55:00,
2013-03-19 05:00:00,34.8,31.0,30.09,SE,142,0.0,1.0,86,0.00,,,0.00,WUHU216DAVISVP2,2013-03-19 12:00:00,
2013-03-19 05:05:00,34.6,31.1,30.08,SE,142,0.0,1.0,87,0.00,,,0.00,WUHU216DAVISVP2,2013-03-19 12:05:00,
2013-03-19 05:10:00,34.5,30.7,30.08,East,91,0.0,2.0,86,0.00,,,0.00,WUHU216DAVISVP2,2013-03-19 12:10:00,
2013-03-19 05:15:00,34.4,30.6,30.08,East,91,1.0,2.0,86,0.00,,,0.00,WUHU216DAVISVP2,2013-03-19 12:15:00,
2013-03-19 05:20:00,34.4,30.6,30.08,East,91,0.0,1.0,86,0.00,,,0.00,WUHU216DAVISVP2,2013-03-19 12:20:00,
2013-03-19 05:25:00,34.2,30.7,30.08,South,178,0.0,2.0,87,0.00,,,0.00,WUHU216DAVISVP2,2013-03-19 12:25:00,
2013-03-19 05:30:00,34.1,30.9,30.08,South,178,0.0,2.0,88,0.00,,,0.00,WUHU216DAVISVP2,2013-03-19 12:30:00,
2013-03-19 05:35:00,33.9,30.4,30.07,East,92,0.0,2.0,87,0.00,,,0.00,WUHU216DAVISVP2,2013-03-19 12:35:00,
2013-03-19 05:40:00,33.9,30.4,30.07,ESE,103,0.0,2.0,87,0.00,,,0.00,WUHU216DAVISVP2,2013-03-19 12:40:00,
2013-03-19 05:45:00,33.9,30.4,30.07,East,84,0.0,1.0,87,0.00,,,0.00,WUHU216DAVISVP2,2013-03-19 12:45:00,
2013-03-19 05:50:00,33.8,30.3,30.07,East,84,0.0,1.0,87,0.00,,,0.00,WUHU216DAVISVP2,2013-03-19 12:50:00,
2013-03-19 05:55:00,33.7,30.2,30.07,East,84,0.0,0.0,87,0.00,,,0.00,WUHU216DAVISVP2,2013-03-19 12:55:00,
2013-03-19 06:00:00,33.6,30.4,30.06,SE,137,0.0,1.0,88,0.00,,,0.00,WUHU216DAVISVP2,2013-03-19 13:00:00,
2013-03-19 06:05:00,33.4,30.2,30.06,SE,137,0.0,1.0,88,0.00,,,0.00,WUHU216DAVISVP2,2013-03-19 13:05:00,
2013-03-19 06:10:00,33.4,30.2,30.06,SE,137,0.0,1.0,88,0.00,,,0.00,WUHU216DAVISVP2,2013-03-19 13:10:00,
2013-03-19 06:15:00,33.2,30.3,30.06,SSE,148,0.0,1.0,89,0.00,,,0.00,WUHU216DAVISVP2,2013-03-19 13:15:00,
2013-03-19 06:20:00,33.0,30.1,30.05,SSW,192,0.0,2.0,89,0.00,,,0.00,WUHU216DAVISVP2,2013-03-19 13:20:00,
2013-03-19 06:25:00,32.9,30.2,30.06,SSW,196,0.0,2.0,90,0.00,,,0.00,WUHU216DAVISVP2,2013-03-19 13:25:00,
2013-03-19 06:30:00,32.8,30.1,30.05,SSW,196,0.0,2.0,90,0.00,,,0.00,WUHU216DAVISVP2,2013-03-19 13:30:00,
2013-03-19 06:35:00,32.6,29.9,30.05,SSW,196,0.0,2.0,90,0.00,,,0.00,WUHU216DAVISVP2,2013-03-19 13:35:00,
2013-03-19 06:40:00,32.5,29.8,30.05,SSW,196,0.0,1.0,90,0.00,,,0.00,WUHU216DAVISVP2,2013-03-19 13:40:00,
2013-03-19 06:45:00,32.5,29.8,30.04,SSW,196,0.0,1.0,90,0.00,,,0.00,WUHU216DAVISVP2,2013-03-19 13:45:00,
2013-03-19 06:50:00,32.5,29.8,30.04,SSW,196,0.0,0.0,90,0.00,,,0.00,WUHU216DAVISVP2,2013-03-19 13:50:00,
2013-03-19 06:55:00,32.5,29.8,30.04,SSW,196,0.0,1.0,90,0.00,,,0.00,WUHU216DAVISVP2,2013-03-19 13:55:00,
2013-03-19 07:00:00,32.7,29.8,30.04,SSW,196,0.0,1.0,89,0.00,,,0.00,WUHU216DAVISVP2,2013-03-19 14:00:00,
2013-03-19 07:05:00,33.1,29.9,30.04,SSW,196,0.0,0.0,88,0.00,,,0.00,WUHU216DAVISVP2,2013-03-19 14:05:00,
2013-03-19 07:10:00,33.2,30.0,30.04,SSW,196,0.0,1.0,88,0.00,,,0.00,WUHU216DAVISVP2,2013-03-19 14:10:00,
2013-03-19 07:15:00,33.2,30.0,30.04,SSW,196,0.0,1.0,88,0.00,,,0.00,WUHU216DAVISVP2,2013-03-19 14:15:00,
2013-03-19 07:20:00,33.2,30.0,30.04,SSW,196,0.0,1.0,88,0.00,,,0.00,WUHU216DAVISVP2,2013-03-19 14:20:00,
2013-03-19 07:25:00,33.0,29.8,30.04,SSW,196,0.0,1.0,88,0.00,,,0.00,WUHU216DAVISVP2,2013-03-19 14:25:00,
2013-03-19 07:30:00,32.7,29.8,30.04,SSW,196,0.0,1.0,89,0.00,,,0.00,WUHU216DAVISVP2,2013-03-19 14:30:00,
2013-03-19 07:35:00,32.5,29.9,30.04,SSW,209,0.0,2.0,90,0.00,,,0.00,WUHU216DAVISVP2,2013-03-19 14:35:00,
2013-03-19 07:40:00,32.5,29.8,30.04,SSW,209,1.0,2.0,90,0.00,,,0.00,WUHU216DAVISVP2,2013-03-19 14:40:00,
2013-03-19 07:45:00,32.4,30.0,30.03,SSW,209,0.0,2.0,91,0.00,,,0.00,WUHU216DAVISVP2,2013-03-19 14:45:00,
2013-03-19 07:50:00,32.4,30.0,30.03,SSW,209,0.0,2.0,91,0.00,,,0.00,WUHU216DAVISVP2,2013-03-19 14:50:00,
2013-03-19 07:55:00,32.3,29.9,30.03,SSW,209,0.0,0.0,91,0.00,,,0.00,WUHU216DAVISVP2,2013-03-19 14:55:00,
2013-03-19 08:00:00,32.4,30.0,30.03,SSW,209,0.0,0.0,91,0.00,,,0.00,WUHU216DAVISVP2,2013-03-19 15:00:00,
2013-03-19 08:05:00,32.4,30.3,30.02,SSW,209,0.0,1.0,92,0.00,,,0.00,WUHU216DAVISVP2,2013-03-19 15:05:00,
2013-03-19 08:10:00,32.5,30.4,30.02,SSW,209,0.0,2.0,92,0.00,,,0.00,WUHU216DAVISVP2,2013-03-19 15:10:00,
2013-03-19 08:15:00,32.6,30.5,30.02,SSW,209,1.0,2.0,92,0.00,,,0.00,WUHU216DAVISVP2,2013-03-19 15:15:00,
2013-03-19 08:20:00,32.7,30.6,30.02,SSW,209,2.0,2.0,92,0.00,,,0.00,WUHU216DAVISVP2,2013-03-19 15:20:00,
2013-03-19 08:25:00,32.9,30.8,30.02,SSW,209,0.0,2.0,92,0.00,,,0.00,WUHU216DAVISVP2,2013-03-19 15:25:00,
2013-03-19 08:30:00,33.1,31.0,30.02,SSW,209,0.0,2.0,92,0.00,,,0.00,WUHU216DAVISVP2,2013-03-19 15:30:00,
2013-03-19 08:35:00,33.3,31.2,30.02,SSW,209,2.0,2.0,92,0.00,,,0.00,WUHU216DAVISVP2,2013-03-19 15:35:00,
2013-03-19 08:40:00,33.5,31.1,30.02,SSW,209,0.0,2.0,91,0.00,,,0.00,WUHU216DAVISVP2,2013-03-19 15:40:00,
2013-03-19 08:45:00,33.7,31.3,30.02,SSW,209,2.0,2.0,91,0.00,,,0.00,WUHU216DAVISVP2,2013-03-19 15:45:00,
2013-03-19 08:50:00,33.9,31.5,30.02,SW,219,1.0,3.0,91,0.00,,,0.00,WUHU216DAVISVP2,2013-03-19 15:50:00,
2013-03-19 08:55:00,34.1,31.4,30.02,SW,219,0.0,4.0,90,0.00,,,0.00,WUHU216DAVISVP2,2013-03-19 15:55:00,
2013-03-19 09:00:00,34.4,31.7,30.02,SW,219,0.0,4.0,90,0.00,,,0.00,WUHU216DAVISVP2,2013-03-19 16:00:00,
2013-03-19 09:05:00,34.6,31.9,30.01,ENE,59,0.0,3.0,90,0.00,,,0.00,WUHU216DAVISVP2,2013-03-19 16:05:00,
2013-03-19 09:10:00,34.8,32.1,30.01,ENE,59,0.0,3.0,90,0.00,,,0.00,WUHU216DAVISVP2,2013-03-19 16:10:00,
2013-03-19 09:15:00,35.0,32.1,30.01,SSW,209,3.0,3.0,89,0.00,,,0.00,WUHU216DAVISVP2,2013-03-19 16:15:00,
2013-03-19 09:20:00,35.3,32.7,30.02,SW,223,2.0,4.0,90,0.00,,,0.00,WUHU216DAVISVP2,2013-03-19 16:20:00,
2013-03-19 09:25:00,35.7,32.8,30.02,SW,223,0.0,4.0,89,0.00,,,0.00,WUHU216DAVISVP2,2013-03-19 16:25:00,
2013-03-19 09:30:00,36.1,32.3,30.02,West,266,1.0,4.0,86,0.00,,,0.00,WUHU216DAVISVP2,2013-03-19 16:30:00,
2013-03-19 09:35:00,36.4,32.6,30.02,SSW,200,1.0,4.0,86,0.00,,,0.00,WUHU216DAVISVP2,2013-03-19 16:35:00,
2013-03-19 09:40:00,36.6,32.2,30.02,East,87,3.0,4.0,84,0.00,,,0.00,WUHU216DAVISVP2,2013-03-19 16:40:00,
2013-03-19 09:45:00,36.9,32.8,30.02,East,83,0.0,4.0,85,0.00,,,0.00,WUHU216DAVISVP2,2013-03-19 16:45:00,
2013-03-19 09:50:00,37.1,33.0,30.02,ENE,61,0.0,4.0,85,0.00,,,0.00,WUHU216DAVISVP2,2013-03-19 16:50:00,
2013-03-19 09:55:00,37.4,32.7,30.02,SE,141,0.0,3.0,83,0.00,,,0.00,WUHU216DAVISVP2,2013-03-19 16:55:00,
2013-03-19 10:00:00,37.8,33.1,30.01,NE,46,1.0,3.0,83,0.00,,,0.00,WUHU216DAVISVP2,2013-03-19 17:00:00,
2013-03-19 10:05:00,38.2,32.9,30.01,ENE,67,1.0,3.0,81,0.00,,,0.00,WUHU216DAVISVP2,2013-03-19 17:05:00,
2013-03-19 10:10:00,38.5,33.2,30.01,ENE,74,2.0,4.0,81,0.00,,,0.00,WUHU216DAVISVP2,2013-03-19 17:10:00,
2013-03-19 10:15:00,38.8,33.2,30.01,NNE,26,1.0,4.0,80,0.00,,,0.00,WUHU216DAVISVP2,2013-03-19 17:15:00,
2013-03-19 10:20:00,39.2,34.2,30.01,ESE,113,1.0,4.0,82,0.00,,,0.00,WUHU216DAVISVP2,2013-03-19 17:20:00,
2013-03-19 10:25:00,39.6,34.3,30.01,North,355,1.0,3.0,81,0.00,,,0.00,WUHU216DAVISVP2,2013-03-19 17:25:00,
2013-03-19 10:30:00,39.9,34.2,30.00,NE,38,2.0,3.0,80,0.00,,,0.00,WUHU216DAVISVP2,2013-03-19 17:30:00,
2013-03-19 10:35:00,40.4,34.4,30.00,NNE,24,3.0,6.0,79,0.00,,,0.00,WUHU216DAVISVP2,2013-03-19 17:35:00,
2013-03-19 10:40:00,41.1,34.8,30.00,North,9,2.0,6.0,78,0.00,,,0.00,WUHU216DAVISVP2,2013-03-19 17:40:00,
2013-03-19 10:45:00,43.3,34.9,29.99,North,9,2.0,10.0,72,0.00,,,0.00,WUHU216DAVISVP2,2013-03-19 17:45:00,
2013-03-19 10:50:00,46.6,28.9,29.99,ENE,71,2.0,10.0,50,0.00,,,0.00,WUHU216DAVISVP2,2013-03-19 17:50:00,
2013-03-19 10:55:00,48.9,27.2,29.99,North,355,3.0,10.0,43,0.00,,,0.00,WUHU216DAVISVP2,2013-03-19 17:55:00,
2013-03-19 11:00:00,50.2,28.4,29.98,SE,140,6.0,14.0,43,0.00,,,0.00,WUHU216DAVISVP2,2013-03-19 18:00:00,
2013-03-19 11:05:00,50.8,27.2,29.98,NNE,30,6.0,14.0,40,0.00,,,0.00,WUHU216DAVISVP2,2013-03-19 18:05:00,
2013-03-19 11:10:00,51.2,26.9,29.98,ENE,64,5.0,13.0,39,0.00,,,0.00,WUHU216DAVISVP2,2013-03-19 18:10:00,
2013-03-19 11:15:00,51.4,25.8,29.98,NE,47,9.0,16.0,37,0.00,,,0.00,WUHU216DAVISVP2,2013-03-19 18:15:00,
2013-03-19 11:20:00,51.5,25.9,29.98,East,96,5.0,16.0,37,0.00,,,0.00,WUHU216DAVISVP2,2013-03-19 18:20:00,
2013-03-19 11:25:00,51.6,26.6,29.99,East,86,2.0,17.0,38,0.00,,,0.00,WUHU216DAVISVP2,2013-03-19 18:25:00,
2013-03-19 11:30:00,51.9,25.8,29.98,NE,52,1.0,17.0,36,0.00,,,0.00,WUHU216DAVISVP2,2013-03-19 18:30:00,
2013-03-19 11:35:00,51.8,24.8,29.98,SSW,192,1.0,11.0,35,0.00,,,0.00,WUHU216DAVISVP2,2013-03-19 18:35:00,
2013-03-19 11:40:00,51.9,25.5,29.98,ENE,76,6.0,12.0,36,0.00,,,0.00,WUHU216DAVISVP2,2013-03-19 18:40:00,
2013-03-19 11:45:00,52.1,25.3,29.98,NE,55,5.0,16.0,35,0.00,,,0.00,WUHU216DAVISVP2,2013-03-19 18:45:00,
2013-03-19 11:50:00,52.1,23.6,29.97,NNE,32,7.0,16.0,33,0.00,,,0.00,WUHU216DAVISVP2,2013-03-19 18:50:00,
2013-03-19 11:55:00,52.2,25.1,29.98,NE,49,7.0,13.0,35,0.00,,,0.00,WUHU216DAVISVP2,2013-03-19 18:55:00,
2013-03-19 12:00:00,52.3,24.5,29.97,North,360,8.0,12.0,34,0.00,,,0.00,WUHU216DAVISVP2,2013-03-19 19:00:00,
2013-03-19 12:05:00,52.2,25.1,29.97,ENE,63,7.0,12.0,35,0.00,,,0.00,WUHU216DAVISVP2,2013-03-19 19:05:00,
2013-03-19 12:10:00,52.2,25.8,29.97,ENE,65,2.0,12.0,36,0.00,,,0.00,WUHU216DAVISVP2,2013-03-19 19:10:00,
2013-03-19 12:15:00,52.3,27.2,29.97,NE,39,1.0,8.0,38,0.00,,,0.00,WUHU216DAVISVP2,2013-03-19 19:15:00,
2013-03-19 12:20:00,52.5,27.6,29.97,North,5,3.0,11.0,38,0.00,,,0.00,WUHU216DAVISVP2,2013-03-19 19:20:00,
2013-03-19 12:25:00,52.6,27.7,29.97,NE,36,1.0,11.0,38,0.00,,,0.00,WUHU216DAVISVP2,2013-03-19 19:25:00,
2013-03-19 12:30:00,52.9,27.1,29.96,NNW,331,2.0,10.0,37,0.00,,,0.00,WUHU216DAVISVP2,2013-03-19 19:30:00,
2013-03-19 12:35:00,53.1,27.9,29.96,NW,317,2.0,10.0,38,0.00,,,0.00,WUHU216DAVISVP2,2013-03-19 19:35:00,
2013-03-19 12:40:00,53.5,27.8,29.96,ENE,70,6.0,10.0,37,0.00,,,0.00,WUHU216DAVISVP2,2013-03-19 19:40:00,
2013-03-19 12:45:00,53.7,28.5,29.95,NNE,31,1.0,7.0,38,0.00,,,0.00,WUHU216DAVISVP2,2013-03-19 19:45:00,
2013-03-19 12:50:00,53.8,28.6,29.95,NNE,26,3.0,7.0,38,0.00,,,0.00,WUHU216DAVISVP2,2013-03-19 19:50:00,
2013-03-19 12:55:00,54.1,30.1,29.95,East,83,4.0,7.0,40,0.00,,,0.00,WUHU216DAVISVP2,2013-03-19 19:55:00,
2013-03-19 13:00:00,54.4,29.8,29.95,NE,51,1.0,7.0,39,0.00,,,0.00,WUHU216DAVISVP2,2013-03-19 20:00:00,
2013-03-19 13:05:00,54.6,29.3,29.95,NNE,28,1.0,5.0,38,0.00,,,0.00,WUHU216DAVISVP2,2013-03-19 20:05:00,
2013-03-19 13:10:00,54.5,28.7,29.94,NNW,344,3.0,12.0,37,0.00,,,0.00,WUHU216DAVISVP2,2013-03-19 20:10:00,
2013-03-19 13:15:00,54.2,28.9,29.94,NNE,32,3.0,12.0,38,0.00,,,0.00,WUHU216DAVISVP2,2013-03-19 20:15:00,
2013-03-19 13:20:00,54.0,29.4,29.93,SE,140,4.0,12.0,39,0.00,,,0.00,WUHU216DAVISVP2,2013-03-19 20:20:00,
2013-03-19 13:25:00,54.1,30.1,29.92,SSE,165,2.0,12.0,40,0.00,,,0.00,WUHU216DAVISVP2,2013-03-19 20:25:00,
2013-03-19 13:30:00,54.2,29.6,29.93,West,274,6.0,10.0,39,0.00,,,0.00,WUHU216DAVISVP2,2013-03-19 20:30:00,
2013-03-19 13:35:00,54.2,29.6,29.92,North,350,2.0,10.0,39,0.00,,,0.00,WUHU216DAVISVP2,2013-03-19 20:35:00,
2013-03-19 13:40:00,54.2,30.8,29.93,WNW,290,7.0,7.0,41,0.00,,,0.00,WUHU216DAVISVP2,2013-03-19 20:40:00,
2013-03-19 13:45:00,54.1,30.9,29.93,SSW,213,3.0,12.0,41,0.00,,,0.00,WUHU216DAVISVP2,2013-03-19 20:45:00,
2013-03-19 13:50:00,54.0,30.7,29.92,SW,223,2.0,12.0,41,0.00,,,0.00,WUHU216DAVISVP2,2013-03-19 20:50:00,
2013-03-19 13:55:00,54.0,30.0,29.92,ENE,67,3.0,10.0,40,0.00,,,0.00,WUHU216DAVISVP2,2013-03-19 20:55:00,
2013-03-19 14:00:00,53.9,30.7,29.92,East,88,3.0,10.0,41,0.00,,,0.00,WUHU216DAVISVP2,2013-03-19 21:00:00,
2013-03-19 14:05:00,53.8,31.1,29.91,NNE,31,3.0,9.0,42,0.00,,,0.00,WUHU216DAVISVP2,2013-03-19 21:05:00,
2013-03-19 14:10:00,53.9,31.2,29.91,NE,49,1.0,9.0,42,0.00,,,0.00,WUHU216DAVISVP2,2013-03-19 21:10:00,
2013-03-19 14:15:00,54.0,33.0,29.91,NW,321,2.0,7.0,45,0.00,,,0.00,WUHU216DAVISVP2,2013-03-19 21:15:00,
2013-03-19 14:20:00,54.0,31.3,29.90,East,85,1.0,6.0,42,0.00,,,0.00,WUHU216DAVISVP2,2013-03-19 21:20:00,
2013-03-19 14:25:00,53.9,31.2,29.90,ENE,69,2.0,9.0,42,0.00,,,0.00,WUHU216DAVISVP2,2013-03-19 21:25:00,
2013-03-19 14:30:00,53.8,31.7,29.90,NNW,348,4.0,9.0,43,0.00,,,0.00,WUHU216DAVISVP2,2013-03-19 21:30:00,
2013-03-19 14:35:00,53.7,31.6,29.90,ENE,62,5.0,9.0,43,0.00,,,0.00,WUHU216DAVISVP2,2013-03-19 21:35:00,
2013-03-19 14:40:00,53.5,31.5,29.90,NNW,345,6.0,10.0,43,0.00,,,0.00,WUHU216DAVISVP2,2013-03-19 21:40:00,
2013-03-19 14:45:00,53.3,31.8,29.89,SE,140,2.0,10.0,44,0.00,,,0.00,WUHU216DAVISVP2,2013-03-19 21:45:00,
2013-03-19 14:50:00,53.2,32.9,29.89,ENE,62,7.0,10.0,46,0.00,,,0.00,WUHU216DAVISVP2,2013-03-19 21:50:00,
2013-03-19 14:55:00,53.0,32.2,29.89,SSE,153,2.0,10.0,45,0.00,,,0.00,WUHU216DAVISVP2,2013-03-19 21:55:00,
2013-03-19 15:00:00,53.0,32.8,29.88,East,99,5.0,12.0,46,0.00,,,0.00,WUHU216DAVISVP2,2013-03-19 22:00:00,
2013-03-19 15:05:00,52.8,33.1,29.88,WNW,282,2.0,12.0,47,0.00,,,0.00,WUHU216DAVISVP2,2013-03-19 22:05:00,
2013-03-19 15:10:00,52.6,32.9,29.88,NNE,16,5.0,11.0,47,0.00,,,0.00,WUHU216DAVISVP2,2013-03-19 22:10:00,
2013-03-19 15:15:00,52.4,33.2,29.88,ENE,65,6.0,11.0,48,0.00,,,0.00,WUHU216DAVISVP2,2013-03-19 22:15:00,
2013-03-19 15:20:00,52.2,34.1,29.87,SE,125,7.0,10.0,50,0.00,,,0.00,WUHU216DAVISVP2,2013-03-19 22:20:00,
2013-03-19 15:25:00,52.1,34.5,29.88,NNW,327,3.0,10.0,51,0.00,,,0.00,WUHU216DAVISVP2,2013-03-19 22:25:00,
2013-03-19 15:30:00,51.9,34.8,29.87,NNE,30,3.0,9.0,52,0.00,,,0.00,WUHU216DAVISVP2,2013-03-19 22:30:00,
2013-03-19 15:35:00,51.7,34.6,29.87,NNE,31,7.0,8.0,52,0.00,,,0.00,WUHU216DAVISVP2,2013-03-19 22:35:00,
2013-03-19 15:40:00,51.3,34.7,29.87,NE,46,10.0,12.0,53,0.00,,,0.00,WUHU216DAVISVP2,2013-03-19 22:40:00,
2013-03-19 15:45:00,51.0,35.4,29.87,NW,321,3.0,12.0,55,0.00,,,0.00,WUHU216DAVISVP2,2013-03-19 22:45:00,
2013-03-19 15:50:00,50.7,35.6,29.87,ENE,77,3.0,9.0,56,0.00,,,0.00,WUHU216DAVISVP2,2013-03-19 22:50:00,
2013-03-19 15:55:00,50.4,36.3,29.87,NNE,28,2.0,10.0,58,0.00,,,0.00,WUHU216DAVISVP2,2013-03-19 22:55:00,
2013-03-19 16:00:00,50.2,36.5,29.87,NNE,15,5.0,10.0,59,0.00,,,0.00,WUHU216DAVISVP2,2013-03-19 23:00:00,
2013-03-19 16:06:00,49.7,36.9,29.87,NE,41,2.0,9.0,61,0.00,,,0.00,WUHU216DAVISVP2,2013-03-19 23:06:00,
2013-03-19 16:11:00,49.4,37.4,29.86,WNW,294,6.0,9.0,63,0.00,,,0.00,WUHU216DAVISVP2,2013-03-19 23:11:00,
2013-03-19 16:16:00,48.9,38.5,29.87,NW,309,3.0,6.0,67,0.00,,,0.00,WUHU216DAVISVP2,2013-03-19 23:16:00,
2013-03-19 16:21:00,48.6,38.2,29.88,NW,322,5.0,5.0,67,0.00,,,0.00,WUHU216DAVISVP2,2013-03-19 23:21:00,
2013-03-19 16:26:00,48.3,37.6,29.88,SW,221,2.0,5.0,66,0.00,,,0.00,WUHU216DAVISVP2,2013-03-19 23:26:00,
2013-03-19 16:31:00,48.1,38.1,29.88,NE,47,3.0,10.0,68,0.00,,,0.00,WUHU216DAVISVP2,2013-03-19 23:31:00,
2013-03-19 16:36:00,47.7,38.4,29.87,North,355,10.0,11.0,70,0.00,,,0.00,WUHU216DAVISVP2,2013-03-19 23:36:00,
2013-03-19 16:41:00,47.1,39.0,29.87,WSW,245,0.0,11.0,73,0.00,,,0.00,WUHU216DAVISVP2,2013-03-19 23:41:00,
2013-03-19 16:46:00,46.7,39.9,29.87,ENE,61,5.0,6.0,77,0.00,,,0.00,WUHU216DAVISVP2,2013-03-19 23:46:00,
2013-03-19 16:51:00,46.1,40.3,29.86,North,11,0.0,6.0,80,0.01,,,0.01,WUHU216DAVISVP2,2013-03-19 23:51:00,
2013-03-19 16:56:00,45.6,39.8,29.86,East,86,2.0,9.0,80,0.01,,,0.01,WUHU216DAVISVP2,2013-03-19 23:56:00,
2013-03-19 17:01:00,45.3,40.4,29.84,ESE,113,0.0,11.0,83,0.01,,,0.01,WUHU216DAVISVP2,2013-03-20 00:01:00,
2013-03-19 17:06:00,45.1,40.2,29.85,NNE,32,0.0,11.0,83,0.02,,,0.02,WUHU216DAVISVP2,2013-03-20 00:06:00,
2013-03-19 17:11:00,44.9,40.4,29.84,NE,45,3.0,5.0,84,0.02,,,0.02,WUHU216DAVISVP2,2013-03-20 00:11:00,
2013-03-19 17:16:00,44.8,40.3,29.84,NE,43,3.0,5.0,84,0.02,,,0.02,WUHU216DAVISVP2,2013-03-20 00:16:00,
2013-03-19 17:21:00,44.6,40.4,29.84,ENE,65,2.0,5.0,85,0.02,,,0.02,WUHU216DAVISVP2,2013-03-20 00:21:00,
2013-03-19 17:24:00,44.6,40.4,29.83,NE,45,2.0,5.0,85,0.02,,,0.02,WUHU216DAVISVP2,2013-03-20 00:24:00,
2013-03-19 17:29:00,44.5,40.3,29.83,NNE,23,4.0,6.0,85,0.02,,,0.02,WUHU216DAVISVP2,2013-03-20 00:29:00,
2013-03-19 17:34:00,44.4,40.5,29.83,NNE,23,3.0,9.0,86,0.03,,,0.03,WUHU216DAVISVP2,2013-03-20 00:34:00,
2013-03-19 17:39:00,44.3,40.1,29.82,ENE,68,4.0,11.0,85,0.03,,,0.03,WUHU216DAVISVP2,2013-03-20 00:39:00,
2013-03-19 17:44:00,44.4,40.5,29.82,ENE,68,1.0,11.0,86,0.03,,,0.03,WUHU216DAVISVP2,2013-03-20 00:44:00,
2013-03-19 17:58:00,44.3,40.7,29.82,NNE,23,0.0,11.0,87,0.02,,,0.03,WUHU216DAVISVP2,2013-03-20 00:58:00,
2013-03-19 18:03:00,44.5,40.3,29.81,North,11,1.0,6.0,85,0.01,,,0.03,WUHU216DAVISVP2,2013-03-20 01:03:00,
2013-03-19 18:08:00,44.6,40.4,29.81,North,355,0.0,6.0,85,0.01,,,0.03,WUHU216DAVISVP2,2013-03-20 01:08:00,
2013-03-19 18:13:00,44.8,40.6,29.81,NE,36,2.0,7.0,85,0.01,,,0.03,WUHU216DAVISVP2,2013-03-20 01:13:00,
2013-03-19 18:18:00,44.8,40.6,29.80,NE,55,2.0,7.0,85,0.01,,,0.03,WUHU216DAVISVP2,2013-03-20 01:18:00,
2013-03-19 18:23:00,44.8,40.6,29.79,ENE,60,6.0,7.0,85,0.02,,,0.04,WUHU216DAVISVP2,2013-03-20 01:23:00,
2013-03-19 18:28:00,44.7,40.7,29.79,ENE,62,2.0,7.0,86,0.02,,,0.04,WUHU216DAVISVP2,2013-03-20 01:28:00,
2013-03-19 18:33:00,44.8,40.8,29.79,NNE,26,0.0,4.0,86,0.01,,,0.04,WUHU216DAVISVP2,2013-03-20 01:33:00,
2013-03-19 18:38:00,44.7,40.7,29.79,ESE,114,2.0,4.0,86,0.01,,,0.04,WUHU216DAVISVP2,2013-03-20 01:38:00,
2013-03-19 18:43:00,44.6,40.7,29.79,NE,41,3.0,4.0,86,0.01,,,0.04,WUHU216DAVISVP2,2013-03-20 01:43:00,
2013-03-19 18:48:00,44.5,41.1,29.79,NE,41,0.0,4.0,88,0.01,,,0.04,WUHU216DAVISVP2,2013-03-20 01:48:00,
2013-03-19 18:53:00,44.3,40.6,29.78,NE,44,4.0,6.0,87,0.01,,,0.04,WUHU216DAVISVP2,2013-03-20 01:53:00,
2013-03-19 18:58:00,44.3,40.6,29.78,NE,49,0.0,6.0,87,0.01,,,0.04,WUHU216DAVISVP2,2013-03-20 01:58:00,
2013-03-19 19:03:00,44.2,40.9,29.78,NNE,28,0.0,4.0,88,0.01,,,0.04,WUHU216DAVISVP2,2013-03-20 02:03:00,
2013-03-19 19:08:00,44.2,40.9,29.77,NE,41,0.0,5.0,88,0.02,,,0.05,WUHU216DAVISVP2,2013-03-20 02:08:00,
2013-03-19 19:13:00,44.1,41.1,29.76,NNE,32,0.0,5.0,89,0.02,,,0.05,WUHU216DAVISVP2,2013-03-20 02:13:00,
2013-03-19 19:18:00,44.1,40.8,29.76,NNE,32,4.0,4.0,88,0.03,,,0.06,WUHU216DAVISVP2,2013-03-20 02:18:00,
2013-03-19 19:23:00,44.1,41.1,29.75,NE,54,1.0,5.0,89,0.02,,,0.06,WUHU216DAVISVP2,2013-03-20 02:23:00,
2013-03-19 19:28:00,44.0,40.7,29.74,ENE,62,2.0,9.0,88,0.02,,,0.06,WUHU216DAVISVP2,2013-03-20 02:28:00,
2013-03-19 19:33:00,44.0,40.7,29.74,North,355,0.0,9.0,88,0.02,,,0.06,WUHU216DAVISVP2,2013-03-20 02:33:00,
2013-03-19 19:38:00,44.0,41.0,29.73,SE,138,1.0,9.0,89,0.02,,,0.06,WUHU216DAVISVP2,2013-03-20 02:38:00,
2013-03-19 19:43:00,43.9,40.8,29.73,NW,313,4.0,4.0,89,0.03,,,0.07,WUHU216DAVISVP2,2013-03-20 02:43:00,
2013-03-19 19:48:00,44.1,40.7,29.73,NE,42,1.0,6.0,88,0.03,,,0.07,WUHU216DAVISVP2,2013-03-20 02:48:00,
2013-03-19 19:53:00,44.1,41.0,29.72,NE,42,3.0,6.0,89,0.03,,,0.07,WUHU216DAVISVP2,2013-03-20 02:53:00,
2013-03-19 19:58:00,44.2,41.1,29.72,ENE,62,0.0,5.0,89,0.03,,,0.07,WUHU216DAVISVP2,2013-03-20 02:58:00,
2013-03-19 20:03:00,44.2,41.2,29.71,NNE,32,3.0,5.0,89,0.03,,,0.07,WUHU216DAVISVP2,2013-03-20 03:03:00,
2013-03-19 20:08:00,44.2,40.8,29.71,NNE,15,2.0,6.0,88,0.02,,,0.07,WUHU216DAVISVP2,2013-03-20 03:08:00,
2013-03-19 20:13:00,44.2,40.8,29.71,ENE,65,3.0,6.0,88,0.02,,,0.07,WUHU216DAVISVP2,2013-03-20 03:13:00,
2013-03-19 20:18:00,44.5,40.6,29.70,North,351,1.0,10.0,86,0.01,,,0.07,WUHU216DAVISVP2,2013-03-20 03:18:00,
2013-03-19 20:23:00,44.7,41.0,29.70,ENE,57,0.0,10.0,87,0.01,,,0.07,WUHU216DAVISVP2,2013-03-20 03:23:00,
2013-03-19 20:28:00,44.7,40.8,29.70,NNE,26,1.0,9.0,86,0.01,,,0.07,WUHU216DAVISVP2,2013-03-20 03:28:00,
2013-03-19 20:33:00,44.9,41.2,29.70,ENE,59,3.0,5.0,87,0.01,,,0.07,WUHU216DAVISVP2,2013-03-20 03:33:00,
2013-03-19 20:38:00,45.0,41.0,29.69,ENE,66,0.0,5.0,86,0.01,,,0.07,WUHU216DAVISVP2,2013-03-20 03:38:00,
2013-03-19 20:43:00,45.1,40.8,29.69,South,173,0.0,8.0,85,0.00,,,0.07,WUHU216DAVISVP2,2013-03-20 03:43:00,
2013-03-19 20:48:00,45.5,40.9,29.67,WSW,257,5.0,13.0,84,0.00,,,0.07,WUHU216DAVISVP2,2013-03-20 03:48:00,
2013-03-19 20:53:00,45.7,41.1,29.66,ENE,68,1.0,13.0,84,0.00,,,0.07,WUHU216DAVISVP2,2013-03-20 03:53:00,
2013-03-19 20:58:00,46.0,41.1,29.66,WNW,297,4.0,11.0,83,0.00,,,0.07,WUHU216DAVISVP2,2013-03-20 03:58:00,
2013-03-19 21:00:00,46.0,41.1,29.66,WNW,298,3.0,11.0,83,0.00,,,0.07,WUHU216DAVISVP2,2013-03-20 04:00:00,
2013-03-19 21:05:00,46.3,41.1,29.65,NNE,19,4.0,11.0,82,0.00,,,0.07,WUHU216DAVISVP2,2013-03-20 04:05:00,
2013-03-19 21:10:00,46.8,41.3,29.65,West,277,5.0,12.0,81,0.00,,,0.07,WUHU216DAVISVP2,2013-03-20 04:10:00,
2013-03-19 21:15:00,47.4,41.6,29.65,NNW,344,5.0,20.0,80,0.00,,,0.07,WUHU216DAVISVP2,2013-03-20 04:15:00,
2013-03-19 21:20:00,47.6,41.4,29.64,NNE,17,5.0,20.0,79,0.00,,,0.07,WUHU216DAVISVP2,2013-03-20 04:20:00,
2013-03-19 21:25:00,47.6,41.4,29.64,NE,53,3.0,11.0,79,0.00,,,0.07,WUHU216DAVISVP2,2013-03-20 04:25:00,
2013-03-19 21:30:00,47.7,41.5,29.64,WSW,239,2.0,10.0,79,0.00,,,0.07,WUHU216DAVISVP2,2013-03-20 04:30:00,
2013-03-19 21:35:00,47.9,41.4,29.64,ENE,59,4.0,16.0,78,0.00,,,0.07,WUHU216DAVISVP2,2013-03-20 04:35:00,
2013-03-19 21:40:00,48.1,41.9,29.63,WNW,290,5.0,16.0,79,0.00,,,0.07,WUHU216DAVISVP2,2013-03-20 04:40:00,
2013-03-19 21:45:00,48.2,42.0,29.63,East,81,3.0,12.0,79,0.00,,,0.07,WUHU216DAVISVP2,2013-03-20 04:45:00,
2013-03-19 21:50:00,48.1,42.3,29.63,NW,316,7.0,11.0,80,0.00,,,0.07,WUHU216DAVISVP2,2013-03-20 04:50:00,
2013-03-19 21:55:00,48.0,42.5,29.63,North,5,3.0,11.0,81,0.01,,,0.08,WUHU216DAVISVP2,2013-03-20 04:55:00,
2013-03-19 22:00:00,48.0,42.5,29.61,ENE,71,2.0,9.0,81,0.01,,,0.08,WUHU216DAVISVP2,2013-03-20 05:00:00,
2013-03-19 22:05:00,48.0,42.5,29.62,South,184,2.0,11.0,81,0.01,,,0.08,WUHU216DAVISVP2,2013-03-20 05:05:00,
2013-03-19 22:10:00,48.1,42.3,29.62,WNW,301,9.0,11.0,80,0.01,,,0.08,WUHU216DAVISVP2,2013-03-20 05:10:00,
2013-03-19 22:15:00,48.2,42.4,29.62,NE,39,4.0,9.0,80,0.01,,,0.08,WUHU216DAVISVP2,2013-03-20 05:15:00,
2013-03-19 22:20:00,48.3,42.4,29.63,ENE,68,1.0,7.0,80,0.01,,,0.08,WUHU216DAVISVP2,2013-03-20 05:20:00,
2013-03-19 22:25:00,48.3,42.4,29.62,East,84,3.0,7.0,80,0.01,,,0.08,WUHU216DAVISVP2,2013-03-20 05:25:00,
2013-03-19 22:30:00,48.4,42.8,29.62,NNE,13,1.0,12.0,81,0.01,,,0.08,WUHU216DAVISVP2,2013-03-20 05:30:00,
2013-03-19 22:35:00,48.2,43.0,29.62,SSW,198,1.0,12.0,82,0.01,,,0.08,WUHU216DAVISVP2,2013-03-20 05:35:00,
2013-03-19 22:40:00,48.1,42.9,29.61,West,275,1.0,6.0,82,0.01,,,0.08,WUHU216DAVISVP2,2013-03-20 05:40:00,
2013-03-19 22:45:00,48.0,43.1,29.61,West,277,4.0,10.0,83,0.02,,,0.09,WUHU216DAVISVP2,2013-03-20 05:45:00,
2013-03-19 22:50:00,48.0,43.1,29.60,North,360,3.0,10.0,83,0.02,,,0.09,WUHU216DAVISVP2,2013-03-20 05:50:00,
2013-03-19 22:55:00,47.9,43.3,29.60,SW,232,2.0,8.0,84,0.02,,,0.10,WUHU216DAVISVP2,2013-03-20 05:55:00,
2013-03-19 23:00:00,47.9,43.3,29.60,SSW,206,0.0,6.0,84,0.02,,,0.10,WUHU216DAVISVP2,2013-03-20 06:00:00,
2013-03-19 23:05:00,47.9,43.3,29.60,West,279,1.0,6.0,84,0.02,,,0.10,WUHU216DAVISVP2,2013-03-20 06:05:00,
2013-03-19 23:10:00,47.7,43.4,29.60,NNW,346,4.0,6.0,85,0.02,,,0.10,WUHU216DAVISVP2,2013-03-20 06:10:00,
2013-03-19 23:15:00,47.6,43.3,29.60,SW,232,1.0,9.0,85,0.03,,,0.11,WUHU216DAVISVP2,2013-03-20 06:15:00,
2013-03-19 23:20:00,47.6,43.6,29.60,NNE,26,1.0,9.0,86,0.04,,,0.12,WUHU216DAVISVP2,2013-03-20 06:20:00,
2013-03-19 23:25:00,47.6,43.3,29.60,SSW,198,0.0,9.0,85,0.04,,,0.12,WUHU216DAVISVP2,2013-03-20 06:25:00,
2013-03-19 23:30:00,47.5,43.2,29.60,SSE,161,1.0,9.0,85,0.04,,,0.12,WUHU216DAVISVP2,2013-03-20 06:30:00,
2013-03-19 23:35:00,47.5,43.5,29.59,NNW,341,2.0,6.0,86,0.04,,,0.12,WUHU216DAVISVP2,2013-03-20 06:35:00,
2013-03-19 23:40:00,47.4,43.4,29.59,NNW,335,2.0,10.0,86,0.05,,,0.13,WUHU216DAVISVP2,2013-03-20 06:40:00,
2013-03-19 23:45:00,47.4,43.4,29.59,NNW,344,0.0,10.0,86,0.04,,,0.13,WUHU216DAVISVP2,2013-03-20 06:45:00,
2013-03-19 23:50:00,47.5,43.5,29.59,West,269,0.0,8.0,86,0.04,,,0.13,WUHU216DAVISVP2,2013-03-20 06:50:00,
2013-03-19 23:55:00,47.5,43.5,29.59,NNW,343,4.0,5.0,86,0.04,,,0.14,WUHU216DAVISVP2,2013-03-20 06:55:00,